FW0288 Weather Reports


time (UTC)temp
C
wind
direction
speed
KPH
gust
KPH
rain 1hr
cm
rain 24hr
cm
rain mn
cm
humidity
%
barometer
mb
20260902063050 21 261 0.0 9.7 0.00 0.08 0.00 43 1004.8
20260902061559 20 259 0.0 4.8 0.00 0.08 0.00 42 1004.9
20260902060056 20 277 0.0 4.8 0.00 0.08 0.00 43 1004.9
20260902054605 20 273 0.0 1.6 0.00 0.08 0.08 44 1005.1
20260902053059 21 263 0.0 4.8 0.00 0.08 0.08 42 1005.1
20260902051546 21 277 0.0 1.6 0.00 0.08 0.08 42 1005.0
20260902050045 21 285 0.0 3.2 0.00 0.08 0.08 44 1005.1
20260902044542 21 281 0.0 4.8 0.00 0.08 0.08 47 1005.1
20260902043045 21 271 0.0 6.4 0.00 0.08 0.08 48 1005.5
20260902041546 21 269 0.0 0.0 0.00 0.08 0.08 48 1005.6
20260902040048 22 269 0.0 0.0 0.00 0.08 0.08 47 1005.6
20260902034541 22 261 0.0 6.4 0.00 0.10 0.08 48 1005.6
20260902033041 22 274 0.0 0.0 0.00 0.10 0.08 48 1005.5
20260902031544 21 258 0.0 3.2 0.00 0.10 0.08 51 1005.5
20260902030040 21 164 0.0 0.0 0.00 0.10 0.08 62 1005.6
20260902024542 22 360 0.0 0.0 0.00 0.18 0.08 60 1005.1
20260902023044 23 103 0.0 0.0 0.00 0.18 0.08 46 1004.8
20260902021539 25 71 0.0 6.4 0.00 0.18 0.08 36 1004.9
20260902020039 26 52 1.6 14.5 0.00 0.18 0.08 30 1004.3
20260902014537 26 121 0.0 0.0 0.00 0.18 0.08 32 1004.5
20260902013041 25 89 0.0 0.0 0.00 0.18 0.08 34 1004.4
20260902011535 25 90 0.0 0.0 0.00 0.18 0.08 36 1004.4
20260902010034 26 360 0.0 6.4 0.00 0.18 0.08 32 1004.3
20260902004534 27 5 0.0 0.0 0.00 0.18 0.08 32 1004.2
20260902003038 27 5 0.0 0.0 0.00 0.18 0.08 32 1004.4
20260902001545 27 5 0.0 0.0 0.00 0.18 0.08 30 1004.3
20260902000035 27 29 0.0 0.0 0.00 0.18 0.08 28 1004.2
20260901234529 28 55 0.0 3.2 0.00 0.18 0.08 27 1004.3
20260901233028 30 263 0.0 14.5 0.00 0.18 0.08 27 1004.3
20260901231529 30 273 0.0 6.4 0.00 0.18 0.08 24 1004.2
20260901230028 29 266 0.0 4.8 0.00 0.18 0.08 25 1004.1
20260901224527 29 260 0.0 9.7 0.00 0.18 0.08 23 1004.1
20260901223026 31 177 0.0 6.4 0.00 0.18 0.08 20 1004.2
20260901221524 31 268 0.0 16.1 0.00 0.18 0.08 21 1004.5
20260901220022 29 360 0.0 0.0 0.00 0.18 0.08 30 1004.7
20260901214520 28 360 0.0 0.0 0.00 0.18 0.08 33 1004.9
20260901213018 27 360 0.0 1.6 0.00 0.18 0.08 34 1005.2
20260901211517 27 360 0.0 9.7 0.00 0.18 0.08 38 1005.2
20260901210013 27 174 0.0 3.2 0.00 0.18 0.08 33 1005.2
20260901204513 27 115 0.0 8.0 0.00 0.18 0.08 31 1005.2
20260901203008 28 360 0.0 3.2 0.00 0.18 0.08 33 1005.5
20260901201507 27 360 0.0 6.4 0.00 0.18 0.08 34 1005.6
20260901200005 27 360 0.0 12.9 0.00 0.18 0.08 33 1005.6
20260901194505 26 360 1.6 14.5 0.00 0.18 0.08 35 1005.6
20260901193004 27 360 0.0 8.0 0.00 0.18 0.08 34 1005.8
20260901191503 27 360 0.0 9.7 0.00 0.18 0.08 42 1005.8
20260901190001 26 360 3.2 6.4 0.00 0.18 0.08 39 1006.0
20260901184558 26 360 3.2 16.1 0.00 0.18 0.08 36 1006.3
20260901183101 26 360 3.2 11.3 0.00 0.18 0.08 39 1006.5
20260901181601 26 360 0.0 12.9 0.00 0.18 0.08 36 1006.6
20260901180053 26 360 3.2 12.9 0.00 0.18 0.08 38 1006.8
20260901174552 26 360 0.0 12.9 0.00 0.18 0.08 37 1007.0
20260901173058 26 360 1.6 9.7 0.00 0.18 0.08 37 1007.1
20260901171558 26 360 1.6 14.5 0.00 0.18 0.08 35 1007.2
20260901170045 27 259 0.0 9.7 0.00 0.18 0.08 33 1007.5
20260901164542 26 269 0.0 17.7 0.00 0.18 0.08 35 1007.6
20260901163034 25 275 1.6 16.1 0.00 0.18 0.08 36 1007.7
20260901161547 24 246 3.2 17.7 0.00 0.18 0.08 38 1007.7
20260901160025 23 265 1.6 11.3 0.00 0.18 0.08 41 1007.8
20260901154521 22 262 1.6 9.7 0.00 0.18 0.08 45 1007.9
20260901153016 21 360 1.6 11.3 0.00 0.18 0.08 47 1007.9
20260901151514 21 264 0.0 6.4 0.00 0.18 0.08 49 1007.9
20260901150010 21 256 0.0 4.8 0.00 0.18 0.08 54 1007.7
20260901144505 20 360 1.6 11.3 0.00 0.18 0.08 59 1007.7
20260901143001 16 360 1.6 9.7 0.00 0.18 0.08 80 1007.7
20260901141557 16 123 0.0 0.0 0.00 0.18 0.08 83 1007.9
20260901140057 15 155 3.2 4.8 0.00 0.18 0.08 83 1007.9
20260901134549 15 261 0.0 0.0 0.00 0.18 0.08 83 1007.8
20260901133047 15 261 0.0 0.0 0.00 0.18 0.08 83 1007.6
20260901131546 15 261 0.0 0.0 0.00 0.18 0.08 82 1007.3
20260901130055 15 261 0.0 0.0 0.00 0.18 0.08 83 1007.0
20260901124542 15 260 0.0 0.0 0.00 0.18 0.08 83 1006.7
20260901123040 15 261 0.0 0.0 0.00 0.18 0.08 83 1006.6
20260901121540 15 261 0.0 0.0 0.00 0.18 0.08 83 1006.5
20260901120040 15 261 0.0 1.6 0.00 0.18 0.08 84 1006.5
20260901114559 15 261 0.0 0.0 0.00 0.18 0.08 84 1006.4
20260901113038 15 260 0.0 3.2 0.00 0.18 0.08 84 1006.4
20260901111540 15 257 0.0 0.0 0.00 0.18 0.08 85 1006.4
20260901110036 15 257 0.0 0.0 0.00 0.18 0.08 85 1006.5
20260901104535 15 257 0.0 0.0 0.00 0.18 0.08 85 1006.5
20260901103034 15 257 0.0 0.0 0.00 0.18 0.08 85 1006.6
20260901101534 15 257 0.0 0.0 0.00 0.18 0.08 85 1006.6
20260901100033 15 258 0.0 0.0 0.00 0.18 0.08 86 1006.8
20260901094537 15 258 0.0 0.0 0.00 0.18 0.08 86 1006.8
20260901093028 15 257 0.0 0.0 0.00 0.18 0.08 87 1007.0
20260901091528 15 258 0.0 0.0 0.00 0.18 0.08 87 1007.0
20260901090127 15 258 0.0 3.2 0.00 0.18 0.08 88 1007.2
20260901084524 16 248 0.0 0.0 0.00 0.18 0.08 87 1007.3
20260901083023 16 248 0.0 0.0 0.00 0.18 0.08 87 1007.3
20260901081521 16 248 0.0 0.0 0.05 0.18 0.08 86 1007.6
20260901080022 16 232 0.0 0.0 0.08 0.18 0.08 86 1007.8
20260901074519 16 232 0.0 0.0 0.08 0.18 0.08 85 1007.9
20260901073014 16 230 0.0 4.8 0.08 0.18 0.08 83 1008.2
20260901071513 17 215 0.0 0.0 0.03 0.13 0.03 81 1008.2
20260901070013 17 261 0.0 0.0 0.00 0.10 0.00 82 1008.5
20260901064517 17 261 0.0 0.0 0.00 0.10 0.00 81 1007.9